Tracking 35237 objects as of 5-Sep-2026
HD Live streaming from Space Station
objects crossing your sky now

SOYUZ 18 DEB


SOYUZ 18 DEB is no longer on orbit


NORAD ID: 7912
Int'l Code: 1975-044D
Launch date: May 24, 1975
Source: Commonwealth of Independent States (former USSR) (CIS)
Launch site: TYURATAM MISSILE AND SPACE COMPLEX (TTMTR)
Decay date: 1975-09-20

Note: This is SATELLITE DEBRIS
Your satellite tracking list
Your tracking list is empty




NASA's NSSDC Master Catalog

Two Line Element Set (TLE):
1 07912U 75044  D 75252.46443698  .00553983 +00000-0 +81707-3 0  9993
2 07912 051.6039 274.4573 0025986 359.0644 001.0273 16.02731915040662
Source of the keplerian elements: AFSPC